Location: Beuvrequen
(50.8014°N, 1.6652°E)
Time: 19:05:05
(UTC+00:00)

Cosmos 1844 - Pass Details

Date: 02 June 2022
Orbit: 821 x 869 km, 70.9° (Epoch: 30 June)

Event Time Altitude Azimuth Distance (km) Brightness Sun altitude
Rises 22:46:27 0° 319° (NW) 3,466 8.1 -15.5°
Reaches altitude 10° 22:49:44 10° 301° (WNW) 2,522 6.8 -15.7°
Maximum altitude 22:53:22 17° 262° (W) 2,041 5.8 -15.8°
Drops below altitude 10° 22:56:59 10° 223° (SW) 2,503 5.8 -15.9°
Enters shadow 22:57:29 - 219° (SW) 2,627 5.9 -16.0°
